TimeCDT,TemperatureF,Dew PointF,Humidity,Sea Level PressureIn,VisibilityMPH,Wind Direction,Wind SpeedMPH,Gust SpeedMPH,PrecipitationIn,Events,Conditions,WindDirDegrees,DateUTC
12:53 AM,66.0,48.9,54,29.84,10.0,SSE,16.1,24.2,N/A,,Clear,160,2012-10-03 05:53:00
1:53 AM,64.9,48.9,56,29.83,10.0,SSE,15.0,-,N/A,,Clear,160,2012-10-03 06:53:00
2:53 AM,64.0,48.9,58,29.82,10.0,SSE,15.0,-,N/A,,Clear,160,2012-10-03 07:53:00
3:53 AM,63.0,50.0,63,29.81,10.0,SSE,15.0,-,N/A,,Clear,160,2012-10-03 08:53:00
4:53 AM,62.1,50.0,65,29.80,10.0,SSE,11.5,-,N/A,,Clear,160,2012-10-03 09:53:00
5:53 AM,61.0,50.0,67,29.80,10.0,SSE,10.4,-,N/A,,Clear,160,2012-10-03 10:53:00
6:53 AM,57.9,50.0,75,29.81,10.0,South,10.4,-,N/A,,Clear,170,2012-10-03 11:53:00
7:53 AM,57.0,50.0,77,29.82,10.0,South,10.4,-,N/A,,Clear,170,2012-10-03 12:53:00
8:53 AM,62.1,51.1,67,29.82,10.0,SSE,9.2,-,N/A,,Clear,160,2012-10-03 13:53:00
9:53 AM,75.0,48.9,40,29.82,10.0,SW,9.2,-,N/A,,Clear,220,2012-10-03 14:53:00
10:53 AM,81.0,48.0,31,29.82,10.0,SW,11.5,-,N/A,,Clear,230,2012-10-03 15:53:00
11:53 AM,84.9,46.0,26,29.83,10.0,WSW,6.9,-,N/A,,Clear,240,2012-10-03 16:53:00
12:53 PM,86.0,44.1,23,29.82,10.0,West,8.1,-,N/A,,Clear,270,2012-10-03 17:53:00
1:53 PM,89.1,44.1,21,29.80,10.0,West,5.8,-,N/A,,Clear,280,2012-10-03 18:53:00
2:53 PM,90.0,42.1,19,29.79,10.0,NW,6.9,-,N/A,,Clear,310,2012-10-03 19:53:00
3:53 PM,91.0,43.0,19,29.78,10.0,NNW,6.9,-,N/A,,Clear,330,2012-10-03 20:53:00
4:53 PM,91.9,41.0,17,29.77,10.0,NE,4.6,-,N/A,,Clear,40,2012-10-03 21:53:00
5:53 PM,90.0,41.0,18,29.78,10.0,ESE,6.9,-,N/A,,Clear,120,2012-10-03 22:53:00
6:53 PM,87.1,46.9,25,29.80,10.0,East,6.9,-,N/A,,Clear,100,2012-10-03 23:53:00
7:53 PM,84.0,45.0,25,29.81,10.0,ENE,3.5,-,N/A,,Clear,70,2012-10-04 00:53:00
8:53 PM,73.9,50.0,43,29.84,10.0,South,8.1,-,N/A,,Clear,170,2012-10-04 01:53:00
9:53 PM,72.0,52.0,49,29.86,10.0,SSE,10.4,-,N/A,,Clear,160,2012-10-04 02:53:00
10:53 PM,71.1,53.1,53,29.86,10.0,SSE,12.7,-,N/A,,Clear,160,2012-10-04 03:53:00
11:53 PM,70.0,53.1,55,29.86,10.0,SSE,15.0,-,N/A,,Clear,160,2012-10-04 04:53:00